Home   Weather   USA   Macclenny   Past weeks
Flag for USA

Past Weather in Macclenny, Florida, USA — Yesterday and Last 2 Weeks

Currently: 75 °F. Scattered clouds. (Weather station: Cecil Field Airport, USA). See more current weather

Past Weather in Macclenny — Graph

°F

Macclenny Temperature Yesterday

Maximum temperature yesterday: 68 °F (at 1:15 am)
Minimum temperature yesterday: 57 °F (at 6:50 pm)
Average temperature yesterday: 63 °F

High & Low Weather Summary for the Past Weeks

 TemperatureHumidityPressure
High84 °F (Feb 28, 1:50 pm)100% (Feb 15, 10:50 pm)30.35 "Hg (Feb 15, 10:50 pm)
Low32 °F (Feb 20, 4:35 am)14% (Feb 22, 3:50 pm)29.66 "Hg (Feb 23, 4:50 pm)
Average54 °F81%30.10 "Hg
* Reported Feb 15 2:50 pm — Mar 1 2:50 pm, Macclenny. Weather by CustomWeather, © 2024

Note: Actual official high and low records may vary slightly from our data, if they occured in-between our weather recording intervals... More about our weather records

Macclenny Weather History for the Previous 24 Hours

Scroll right to see more
 ConditionsComfort  
Time TempWeatherWind HumidityBarometerVisibility
2:50 pm
Fri, Mar 1
75 °FScattered clouds.5 mph83%30.17 "Hg10 mi
1:50 pm77 °FScattered clouds.5 mph74%30.18 "Hg10 mi
12:50 pm75 °FPartly sunny.5 mph83%30.22 "Hg8 mi
11:50 am68 °FLight rain. Partly sunny.3 mph100%30.24 "Hg3 mi
10:50 am68 °FLight rain. Broken clouds.5 mph94%30.26 "Hg2 mi
9:50 am68 °FFog.5 mph88%30.27 "Hg3 mi
8:50 am66 °FPartly sunny.5 mph88%30.26 "Hg6 mi
7:50 am61 °FOvercast.3 mph100%30.24 "Hg10 mi
6:50 am59 °FOvercast.5 mph100%30.24 "Hg10 mi
6:35 am59 °FMostly cloudy.5 mph94%30.23 "Hg8 mi
6:15 am59 °FOvercast.No wind94%30.23 "Hg8 mi
5:55 am59 °FOvercast.3 mph94%30.24 "Hg8 mi
5:35 am59 °FOvercast.3 mph94%30.25 "Hg9 mi
5:15 am59 °FMostly cloudy.No wind94%30.25 "Hg9 mi
4:55 am59 °FMostly cloudy.3 mph94%30.25 "Hg9 mi
4:35 am57 °FMostly cloudy.No wind94%30.26 "Hg9 mi
4:15 am57 °FOvercast.5 mph94%30.26 "Hg10 mi
3:15 am57 °FOvercast.6 mph88%30.26 "Hg10 mi
2:35 am57 °FOvercast.6 mph88%30.28 "Hg10 mi
2:15 am57 °FMostly cloudy.6 mph88%30.29 "Hg10 mi
1:55 am57 °FMostly cloudy.6 mph88%30.29 "Hg10 mi
1:35 am57 °FOvercast.6 mph82%30.29 "Hg10 mi
1:15 am57 °FOvercast.6 mph82%30.31 "Hg10 mi
12:55 am57 °FMostly cloudy.6 mph82%30.30 "Hg10 mi
12:35 am59 °FPassing clouds.6 mph77%30.30 "Hg10 mi
12:15 am59 °FPartly cloudy.8 mph77%30.30 "Hg10 mi
11:55 pm
Thu, Feb 29
59 °FMostly cloudy.7 mph77%30.31 "Hg10 mi
11:35 pm59 °FMostly cloudy.6 mph77%30.32 "Hg10 mi
11:15 pm59 °FOvercast.7 mph77%30.32 "Hg10 mi
10:50 pm59 °FOvercast.7 mph72%30.31 "Hg10 mi
9:50 pm59 °FOvercast.8 mph68%30.33 "Hg10 mi
8:50 pm57 °FOvercast.10 mph72%30.32 "Hg10 mi
7:50 pm57 °FOvercast.10 mph67%30.33 "Hg10 mi
6:50 pm57 °FOvercast.10 mph67%30.34 "Hg10 mi
5:50 pm59 °FOvercast.7 mph59%30.34 "Hg10 mi
4:50 pm59 °FOvercast.13 mph59%30.33 "Hg10 mi
Weather by CustomWeather, © 2024

See weather overview